Location: Gad�tanya
(48.0500°N, 20.8500°E)
Time: 11:50:36
(UTC+00:00)

Cosmos 304 Rocket - Pass Details

Date: 05 July 2020
Orbit: 679 x 688 km, 74.0° (Epoch: 14 August)

Event Time Altitude Azimuth Distance (km) Brightness Sun altitude
Rises 22:49:04 0° 336° (NNW) 3,069 8.3 -19.3°
Reaches altitude 10° 22:51:24 10° 337° (NNW) 2,148 7.3 -19.2°
Maximum altitude 22:56:15 87° 249° (WSW) 696 3.7 -19.2°
Enters shadow 22:58:05 39° 161° (SSE) 1,038 4.2 -19.2°
